Zurück zum Katalog

QUETZSAT 1

AktivKommunikationGEO
NORAD 37826·PAYLOAD·🇲🇽 Mexico

Gestartet Sep 29, 2011 von Baikonur Cosmodrome

Loading…

TLE

AktuellSource: CelesTrak SupGP

Epoche: Sep 14, 2026, 23:44 UTC

1 37826C 11054A   26257.98958333 -.00000158  00000+0  00000+0 0  2577
2 37826   0.0358 292.8490 0002593 251.5862  88.7756  1.00271724    12

Verfolge QUETZSAT 1 in Echtzeit mit AllMySat

Download on the App Store